Location: Banff
(51.1670°N, 115.5670°W)
Time: 10:00:57
(UTC-06:00)

Amateur Radio Satellites - All Passes

Search period start: 31 August 2016 09:30
Search period end: 01 September 2016 09:30
Location: Banff, 51.1670°N, 115.5670°W

Satellite Date Start Highest point End Downlink Frequencies (MHz)
Time Altitude Azimuth
BEESAT 3 31 Aug 09:34:00 09:37:13 24° 118° (ESE) 09:40:28 437.485
AAUSAT CUBESAT 2 31 Aug 09:34:32 09:37:55 23° 93° (E) 09:41:17 437.432
STRAND 1 31 Aug 09:41:30 09:44:20 15° 273° (W) 09:47:10 437.568
CANX-2 31 Aug 09:44:38 09:48:54 77° 104° (ESE) 09:53:09 2200.000
COMPASS 1 31 Aug 09:46:23 09:50:18 37° 97° (E) 09:54:12 437.405
UWE-3 31 Aug 09:49:00 09:52:12 21° 91° (E) 09:55:22 435.000/436.395/437.385
CUTE 1.7 + AOD 2 31 Aug 09:49:54 09:54:10 76° 103° (ESE) 09:58:25 437.475
UNISAT 6 31 Aug 09:51:37 09:55:10 23° 62° (ENE) 09:58:41 437.425
ZACube-1 31 Aug 09:54:38 09:57:16 16° 89° (E) 09:59:51 437.345
AO-85 31 Aug 09:56:37 09:59:28 15° 355° (N) 10:02:12 145.980
DOVE 4 31 Aug 09:58:42 10:03:02 29° 298° (WNW) 10:07:09 437.250
CUBEBUG 2 31 Aug 09:59:37 10:03:35 37° 97° (E) 10:07:27 437.445
DANDE 31 Aug 10:07:43 10:12:06 24° 65° (ENE) 10:17:27 436.750
CINEMA 3 31 Aug 10:09:17 10:13:45 57° 289° (WNW) 10:18:00 145.822/145.860
ISS 31 Aug 10:10:32 10:13:47 64° 161° (SSE) 10:17:03 145.825
AIST 1 31 Aug 10:12:55 10:17:18 86° 280° (W) 10:21:45
NOAA 18 31 Aug 10:13:37 10:17:36 21° 306° (NW) 10:21:32 137.9125
GOMX 1 31 Aug 10:13:39 10:16:41 15° 308° (NW) 10:19:39 467.674
CUSAT 1 31 Aug 10:13:40 10:20:01 58° 73° (ENE) 10:27:35 437.405
ANTELSAT 31 Aug 10:27:28 10:31:47 45° 69° (ENE) 10:36:02 437.575/2403.000
NOAA 15 31 Aug 10:28:13 10:30:13 12° 313° (NW) 10:32:13 137.62
Cubesat XI-IV 31 Aug 10:29:27 10:32:06 14° 311° (NW) 10:34:46 437.490
Cosmos 2504 31 Aug 10:31:49 10:38:09 24° 302° (WNW) 10:44:12 435.465 / 435.565
DELFI C3 31 Aug 10:38:48 10:41:45 19° 91° (E) 10:44:42 145.870
CUTE-I 31 Aug 10:40:34 10:42:26 12° 313° (NW) 10:44:19 437.470
SEEDS 31 Aug 10:50:33 10:54:29 39° 292° (WNW) 10:58:24 437.485
Oscar 11 31 Aug 10:52:41 10:56:58 58° 101° (E) 11:01:13 145.826/435.025
HO-68 31 Aug 10:55:48 11:02:46 56° 297° (WNW) 11:09:41 435.675
TIGRISAT 31 Aug 10:56:56 11:01:29 80° 74° (ENE) 11:05:57 435.000
BEESAT 2 31 Aug 11:00:55 11:04:53 83° 133° (SE) 11:08:55 435.950
PRISM 31 Aug 11:01:38 11:03:29 13° 272° (W) 11:05:20 437.425
RS-15 31 Aug 11:02:50 11:15:00 68° 239° (WSW) 11:27:02 29.354- 29.394
FUNcube-1 31 Aug 11:05:55 11:10:05 73° 103° (ESE) 11:14:12 145.935
YUBILEINY 31 Aug 11:06:21 11:08:19 11° 327° (NNW) 11:10:17 435.215
AAUSAT CUBESAT 2 31 Aug 11:09:38 11:13:35 42° 291° (WNW) 11:17:31 437.432
QB50P1 31 Aug 11:10:09 11:13:29 22° 61° (ENE) 11:16:48 145.935-145.965
BEESAT 3 31 Aug 11:10:49 11:14:39 50° 317° (NW) 11:18:32 437.485
PCSat 31 Aug 11:15:47 11:19:32 19° 107° (ESE) 11:23:18 145.827
GONETS M04 31 Aug 11:20:12 11:27:01 26° 77° (ENE) 11:33:52
POPSAT HIP 1 31 Aug 11:20:15 11:23:51 27° 63° (ENE) 11:27:26 437.405
CANX-2 31 Aug 11:21:42 11:24:14 16° 302° (WNW) 11:26:46 2200.000
COMPASS 1 31 Aug 11:22:11 11:25:45 28° 295° (WNW) 11:29:19 437.405
UWE-3 31 Aug 11:24:55 11:28:57 46° 291° (WNW) 11:32:55 435.000/436.395/437.385
CUTE 1.7 + AOD 2 31 Aug 11:26:56 11:29:30 16° 302° (WNW) 11:32:03 437.475
UNISAT 6 31 Aug 11:27:10 11:31:37 52° 260° (W) 11:36:00 437.425
ZACube-1 31 Aug 11:29:52 11:34:00 61° 288° (WNW) 11:38:04 437.345
Cosmos 2499 31 Aug 11:30:44 11:36:12 21° 78° (ENE) 11:41:24 435.465 / 435.565
CUBEBUG 2 31 Aug 11:36:31 11:40:06 27° 296° (WNW) 11:43:37 437.445
AO-85 31 Aug 11:38:08 11:41:35 20° 20° (NNE) 11:44:50 145.980
HUMSAT D 31 Aug 11:39:33 11:43:25 40° 98° (E) 11:47:17 437.325/437.525
DUCHIFAT 1 31 Aug 11:42:29 11:46:25 38° 67° (ENE) 11:50:21 145.980
ISS 31 Aug 11:46:58 11:50:16 80° 359° (N) 11:53:34 145.825
DANDE 31 Aug 11:49:44 11:55:10 74° 260° (W) 12:02:17 436.750
QB50P2 31 Aug 11:51:03 11:55:12 53° 70° (ENE) 11:59:23 145.880/145.840
ESTCUBE 1 31 Aug 11:52:56 11:54:49 12° 86° (E) 11:56:43 437.505/2401.250
POLYITAN 1 31 Aug 11:53:32 11:57:42 54° 70° (ENE) 12:01:53 437.675
AIST 1 31 Aug 11:53:41 11:55:40 13° 301° (WNW) 11:57:40
CUSAT 1 31 Aug 11:55:59 12:01:54 37° 269° (W) 12:08:46 437.405
NANOSAT C BR1 31 Aug 11:58:08 12:02:18 56° 71° (ENE) 12:06:29 145.865
JAS-2 31 Aug 12:00:13 12:05:11 40° 62° (ENE) 12:10:40 435.910
ANTELSAT 31 Aug 12:04:57 12:08:42 25° 267° (W) 12:12:23 437.575/2403.000
AIST 2 31 Aug 12:10:53 12:14:15 25° 117° (ESE) 12:17:39 435.215
DELFI C3 31 Aug 12:12:59 12:16:51 47° 290° (WNW) 12:20:43 145.870
BUGSAT 1 31 Aug 12:20:06 12:24:06 41° 68° (ENE) 12:28:06 437.445
CUBEBUG 1 31 Aug 12:21:05 12:23:42 15° 88° (E) 12:26:18 437.445
Oscar 11 31 Aug 12:29:36 12:32:45 20° 300° (WNW) 12:35:54 145.826/435.025
VELOX 1 31 Aug 12:30:07 12:32:45 15° 88° (E) 12:35:21 145.980
Oscar 19 31 Aug 12:32:31 12:36:03 19° 54° (NE) 12:39:36 437.125/150
DX 1 31 Aug 12:34:10 12:35:24 11° 86° (E) 12:36:38 434.975-435.025
TIGRISAT 31 Aug 12:36:14 12:38:43 14° 272° (W) 12:41:12 435.000
Gurwin Techsat 1B 31 Aug 12:39:17 12:41:22 12° 48° (NE) 12:43:26 435.225
BEESAT 2 31 Aug 12:40:00 12:43:12 22° 331° (NNW) 12:46:25 435.950
AUBIESAT-1 31 Aug 12:42:21 12:45:40 24° 99° (E) 12:48:46 437.475
FUNcube-1 31 Aug 12:43:21 12:45:50 16° 302° (WNW) 12:48:18 145.935
HO-68 31 Aug 12:44:50 12:49:04 17° 319° (NW) 12:53:18 435.675
QB50P1 31 Aug 12:44:50 12:48:59 50° 260° (W) 12:53:10 145.935-145.965
BEESAT 3 31 Aug 12:50:42 12:53:12 16° 340° (NNW) 12:55:42 437.485
M-CUBED/EXP-1 PRIME 31 Aug 12:51:30 12:55:20 36° 102° (ESE) 12:58:51 437.505
POPSAT HIP 1 31 Aug 12:55:27 12:59:29 40° 262° (W) 13:03:33 437.405
PCSat 31 Aug 12:56:50 13:02:17 86° 307° (NW) 13:07:45 145.827
AO-7 31 Aug 12:59:23 13:03:37 15° 28° (NNE) 13:07:51 29.400- 29.500
UKube-1 31 Aug 13:05:05 13:08:01 17° 90° (E) 13:10:56 .
O/OREOS (USA 219) 31 Aug 13:13:32 13:15:52 14° 99° (E) 13:18:13 437.305
GONETS M04 31 Aug 13:14:00 13:22:47 85° 279° (W) 13:31:43
HUMSAT D 31 Aug 13:15:33 13:18:54 25° 296° (WNW) 13:22:14 437.325/437.525
RS-15 31 Aug 13:17:00 13:25:05 21° 264° (W) 13:33:08 29.354- 29.394
AISAT 31 Aug 13:18:27 13:22:44 42° 99° (E) 13:26:58 437.250
AO-85 31 Aug 13:18:28 13:22:55 63° 44° (NE) 13:26:59 145.980
DUCHIFAT 1 31 Aug 13:18:34 13:22:12 27° 266° (W) 13:25:51 145.980
Cosmos 2499 31 Aug 13:20:27 13:28:23 89° 105° (ESE) 13:35:48 435.465 / 435.565
ISS 31 Aug 13:23:28 13:26:43 57° 201° (SSW) 13:29:57 145.825
50 SAT 31 Aug 13:25:12 13:28:45 46° 100° (E) 13:32:17 437.505
ESTCUBE 1 31 Aug 13:27:45 13:32:20 87° 100° (E) 13:36:54 437.505/2401.250
QB50P2 31 Aug 13:28:12 13:31:20 20° 269° (W) 13:34:29 145.880/145.840
POLYITAN 1 31 Aug 13:30:43 13:33:50 19° 269° (W) 13:36:57 437.675
DANDE 31 Aug 13:34:20 13:37:28 15° 275° (W) 13:40:58 436.750
NANOSAT C BR1 31 Aug 13:35:22 13:38:23 19° 269° (W) 13:41:24 145.865
JAS-2 31 Aug 13:45:25 13:50:22 38° 265° (W) 13:55:48 435.910
AIST 2 31 Aug 13:48:26 13:52:28 53° 317° (NW) 13:56:35 435.215
SPROUT 31 Aug 13:53:34 13:57:45 50° 100° (E) 14:01:54 437.525
CUBEBUG 1 31 Aug 13:56:04 14:00:32 74° 286° (WNW) 14:04:56 437.445
BUGSAT 1 31 Aug 13:56:06 13:59:38 25° 267° (W) 14:03:09 437.445
ITAMSAT 1 31 Aug 13:56:25 13:59:38 17° 53° (NE) 14:02:53 435.822/435.867
TISAT 1 31 Aug 13:58:12 14:00:32 14° 88° (E) 14:02:52 437.305
VELOX 1 31 Aug 14:05:17 14:09:45 75° 289° (WNW) 14:14:12 145.980
DX 1 31 Aug 14:07:54 14:12:20 82° 105° (ESE) 14:16:43 434.975-435.025
Oscar 19 31 Aug 14:09:33 14:14:44 87° 254° (WSW) 14:19:59 437.125/150
Gurwin Techsat 1B 31 Aug 14:15:04 14:20:14 56° 69° (ENE) 14:25:28 435.225
AUBIESAT-1 31 Aug 14:16:29 14:20:17 38° 300° (WNW) 14:23:49 437.475
BEESAT 2 31 Aug 14:20:49 14:22:25 12° 355° (N) 14:24:01 435.950
M-CUBED/EXP-1 PRIME 31 Aug 14:26:10 14:29:45 28° 304° (WNW) 14:33:05 437.505
BEESAT 3 31 Aug 14:31:00 14:32:26 12° 4° (N) 14:33:52 437.485
UKube-1 31 Aug 14:40:10 14:44:29 62° 289° (WNW) 14:48:45 .
PCSat 31 Aug 14:41:55 14:46:26 26° 330° (NNW) 14:50:59 145.827
AO-7 31 Aug 14:46:41 14:54:13 40° 52° (NE) 15:01:44 29.400- 29.500
O/OREOS (USA 219) 31 Aug 14:50:05 14:54:35 85° 296° (WNW) 14:59:11 437.305
AISAT 31 Aug 14:55:15 14:59:03 27° 297° (WNW) 15:02:48 437.250
50 SAT 31 Aug 14:59:29 15:02:02 18° 298° (WNW) 15:04:35 437.505
AO-85 31 Aug 14:59:43 15:02:53 20° 246° (WSW) 15:05:54 145.980
ISS 31 Aug 15:00:38 15:02:42 16° 219° (SW) 15:04:44 145.825
ITUPSAT 1 31 Aug 15:02:59 15:05:43 15° 88° (E) 15:08:26 437.325
ESTCUBE 1 31 Aug 15:05:50 15:08:33 16° 304° (NW) 15:11:14 437.505/2401.250
YUBILEINY 31 Aug 15:10:03 15:14:05 14° 39° (NE) 15:18:06 435.215
GONETS M04 31 Aug 15:14:08 15:21:07 25° 306° (NW) 15:28:10
Cosmos 2499 31 Aug 15:16:32 15:22:31 24° 302° (WNW) 15:28:16 435.465 / 435.565
AIST 2 31 Aug 15:29:02 15:31:50 17° 339° (NNW) 15:34:40 435.215
SPROUT 31 Aug 15:30:05 15:33:25 22° 299° (WNW) 15:36:44 437.525
TISAT 1 31 Aug 15:32:29 15:36:42 72° 287° (WNW) 15:40:52 437.305
SWISSCUBE 31 Aug 15:32:38 15:36:50 30° 95° (E) 15:41:00 437.505
ITAMSAT 1 31 Aug 15:33:12 15:38:24 83° 71° (ENE) 15:43:36 435.822/435.867
CUBEBUG 1 31 Aug 15:34:11 15:36:03 13° 307° (NW) 15:37:55 437.445
VELOX 1 31 Aug 15:43:29 15:45:28 13° 307° (NW) 15:47:28 145.980
DX 1 31 Aug 15:45:18 15:47:57 16° 304° (NW) 15:50:36 434.975-435.025
BEESAT 31 Aug 15:49:07 15:53:33 37° 97° (E) 15:57:58 436.000
Oscar 19 31 Aug 15:51:59 15:54:51 15° 274° (W) 15:57:44 437.125/150
Gurwin Techsat 1B 31 Aug 15:56:07 16:00:32 26° 268° (W) 16:05:00 435.225
BEESAT 2 31 Aug 15:59:24 16:01:51 15° 19° (NNE) 16:04:16 435.950
BEESAT 3 31 Aug 16:08:30 16:11:32 20° 27° (NNE) 16:14:34 437.485
UKube-1 31 Aug 16:18:47 16:19:40 11° 309° (NW) 16:20:34 .
KKS-1 31 Aug 16:24:59 16:26:30 11° 86° (E) 16:28:01 437.445
PCSat 31 Aug 16:28:39 16:31:45 15° 355° (N) 16:34:52 145.827
Cosmos 2504 31 Aug 16:31:06 16:33:01 11° 42° (NE) 16:34:56 435.465 / 435.565
O/OREOS (USA 219) 31 Aug 16:31:42 16:34:45 17° 320° (NW) 16:37:49 437.305
AO-7 31 Aug 16:38:18 16:46:37 67° 255° (WSW) 16:54:58 29.400- 29.500
ITUPSAT 1 31 Aug 16:39:23 16:44:12 84° 288° (WNW) 16:48:59 437.325
NOAA 18 31 Aug 16:47:44 16:49:18 11° 44° (NE) 16:50:52 137.9125
HORYU 2 31 Aug 16:48:37 16:52:27 29° 63° (ENE) 16:56:16 437.375
NOAA 15 31 Aug 16:55:23 16:58:14 15° 50° (NE) 17:01:06 137.62
Cubesat XI-IV 31 Aug 16:58:53 17:01:14 13° 48° (NE) 17:03:36 437.490
Cosmos 2491 31 Aug 16:59:16 17:04:12 17° 70° (ENE) 17:09:08 435.465 / 435.565
MOZHAYETS 4 31 Aug 17:00:45 17:04:54 33° 95° (E) 17:09:03
YUBILEINY 31 Aug 17:05:28 17:13:51 45° 67° (ENE) 17:22:07 435.215
CUTE-I 31 Aug 17:08:32 17:11:29 15° 51° (NE) 17:14:28 437.470
AIST 2 31 Aug 17:10:02 17:11:56 13° 4° (N) 17:13:49 435.215
SWISSCUBE 31 Aug 17:10:16 17:14:45 42° 294° (WNW) 17:19:14 437.505
TISAT 1 31 Aug 17:10:17 17:11:35 11° 307° (NW) 17:12:53 437.305
ITAMSAT 1 31 Aug 17:15:15 17:18:32 17° 272° (W) 17:21:50 435.822/435.867
BRITE-PL 31 Aug 17:18:20 17:22:43 28° 60° (ENE) 17:27:21 437.365/2234.400
BEESAT 31 Aug 17:27:02 17:31:19 34° 296° (WNW) 17:35:35 436.000
BEESAT 2 31 Aug 17:36:45 17:40:37 44° 41° (NE) 17:44:29 435.950
BEESAT 3 31 Aug 17:45:47 17:49:47 84° 48° (NE) 17:53:45 437.485
DOVE 4 31 Aug 17:55:08 17:58:26 17° 54° (NE) 18:01:45 437.250
HO-68 31 Aug 17:58:50 18:02:38 15° 38° (NE) 18:06:24 435.675
KKS-1 31 Aug 17:59:18 18:03:48 84° 105° (ESE) 18:08:16 437.445
LilacSat-2 31 Aug 18:01:51 18:04:54 23° 64° (ENE) 18:07:58 437.200
GOMX 1 31 Aug 18:09:05 18:13:55 37° 64° (ENE) 18:18:56 467.674
PCSat 31 Aug 18:13:20 18:17:17 20° 22° (NNE) 18:21:14 145.827
ITUPSAT 1 31 Aug 18:18:36 18:21:21 15° 306° (NW) 18:24:05 437.325
Cosmos 2504 31 Aug 18:21:54 18:28:50 44° 69° (ENE) 18:35:38 435.465 / 435.565
STARS 31 Aug 18:22:51 18:27:18 75° 104° (ESE) 18:31:40 437.465
NOAA 18 31 Aug 18:23:27 18:28:43 47° 65° (ENE) 18:34:00 137.9125
HORYU 2 31 Aug 18:24:41 18:28:53 40° 262° (W) 18:33:05 437.375
NOAA 15 31 Aug 18:31:54 18:37:08 69° 70° (ENE) 18:42:25 137.62
CUBESAT XI-V 31 Aug 18:32:44 18:37:10 39° 97° (E) 18:41:35 437.345
Cubesat XI-IV 31 Aug 18:35:04 18:40:18 59° 69° (ENE) 18:45:34 437.490
AO-7 31 Aug 18:36:13 18:41:04 16° 276° (W) 18:45:55 29.400- 29.500
MOZHAYETS 4 31 Aug 18:37:56 18:42:06 35° 294° (WNW) 18:46:17
CUTE-I 31 Aug 18:45:23 18:50:41 71° 71° (ENE) 18:56:00 437.470
AIST 2 31 Aug 18:48:33 18:51:52 22° 27° (NNE) 18:55:11 435.215
Cosmos 2491 31 Aug 18:50:40 18:59:17 67° 93° (E) 19:07:58 435.465 / 435.565
BRITE-PL 31 Aug 18:55:50 19:00:51 56° 261° (W) 19:06:17 437.365/2234.400
YUBILEINY 31 Aug 19:02:27 19:10:51 53° 271° (W) 19:19:11 435.215
CANX-2 31 Aug 19:08:35 19:10:59 15° 58° (ENE) 19:13:24 2200.000
CUTE 1.7 + AOD 2 31 Aug 19:13:47 19:16:10 15° 57° (ENE) 19:18:33 437.475
BEESAT 2 31 Aug 19:14:49 19:18:19 29° 241° (WSW) 19:21:49 435.950
BEESAT 3 31 Aug 19:24:44 19:26:54 14° 248° (WSW) 19:29:03 437.485
CUBEBUG 2 31 Aug 19:29:49 19:30:46 11° 53° (NE) 19:31:42 437.445
DOVE 4 31 Aug 19:30:04 19:35:21 81° 73° (ENE) 19:40:42 437.250
LilacSat-2 31 Aug 19:35:28 19:39:03 37° 263° (W) 19:42:39 437.200
KKS-1 31 Aug 19:37:05 19:39:47 16° 304° (NW) 19:42:29 437.445
CINEMA 3 31 Aug 19:38:31 19:43:00 35° 65° (ENE) 19:47:23 145.822/145.860
HO-68 31 Aug 19:41:56 19:48:46 49° 61° (ENE) 19:55:38 435.675
GOMX 1 31 Aug 19:46:55 19:51:55 42° 264° (W) 19:57:08 467.674
PCSat 31 Aug 19:56:34 20:01:54 53° 46° (NE) 20:07:13 145.827
STARS 31 Aug 20:00:18 20:03:08 17° 303° (WNW) 20:05:58 437.465
NOAA 18 31 Aug 20:04:36 20:09:33 33° 264° (W) 20:14:32 137.9125
STRAND 1 31 Aug 20:05:09 20:09:02 21° 91° (E) 20:12:53 437.568
CUBESAT XI-V 31 Aug 20:10:18 20:14:29 32° 296° (WNW) 20:18:39 437.345
SEEDS 31 Aug 20:11:34 20:15:19 34° 67° (ENE) 20:19:07 437.485
NOAA 15 31 Aug 20:13:31 20:17:26 21° 270° (W) 20:21:23 137.62
AIST 1 31 Aug 20:14:38 20:18:49 41° 72° (ENE) 20:22:58
Cosmos 2504 31 Aug 20:15:29 20:22:13 43° 272° (W) 20:28:52 435.465 / 435.565
Cubesat XI-IV 31 Aug 20:16:26 20:20:47 25° 268° (W) 20:25:08 437.490
Oscar 11 31 Aug 20:18:54 20:20:56 13° 55° (NE) 20:22:58 145.826/435.025
AIST 2 31 Aug 20:26:43 20:30:56 86° 49° (NE) 20:35:08 435.215
CUTE-I 31 Aug 20:27:22 20:31:17 20° 270° (W) 20:35:13 437.470
AAUSAT CUBESAT 2 31 Aug 20:29:32 20:33:08 30° 66° (ENE) 20:36:46 437.432
FUNcube-1 31 Aug 20:31:58 20:34:36 16° 58° (ENE) 20:37:13 145.935
COMPASS 1 31 Aug 20:41:49 20:45:47 48° 70° (ENE) 20:49:47 437.405
CANX-2 31 Aug 20:42:06 20:46:18 80° 255° (WSW) 20:50:33 2200.000
CUTE 1.7 + AOD 2 31 Aug 20:47:16 20:51:28 81° 257° (WSW) 20:55:42 437.475
Cosmos 2491 31 Aug 20:48:55 20:56:48 36° 298° (WNW) 21:04:47 435.465 / 435.565
UWE-3 31 Aug 20:50:23 20:54:26 34° 66° (ENE) 20:58:23 435.000/436.395/437.385
ZACube-1 31 Aug 20:54:55 20:58:31 26° 64° (ENE) 21:02:05 437.345
CUBEBUG 2 31 Aug 21:02:01 21:06:34 61° 72° (ENE) 21:10:59 437.445
YUBILEINY 31 Aug 21:02:35 21:05:27 12° 295° (WNW) 21:08:20 435.215
DOVE 4 31 Aug 21:10:02 21:13:39 18° 273° (W) 21:17:18 437.250
Cosmos 2499 31 Aug 21:15:22 21:16:23 10° 42° (NE) 21:17:23 435.465 / 435.565
CINEMA 3 31 Aug 21:15:25 21:20:05 39° 263° (W) 21:24:40 145.822/145.860
GONETS M04 31 Aug 21:21:44 21:27:48 20° 48° (NE) 21:33:52
DELFI C3 31 Aug 21:29:33 21:32:42 23° 63° (ENE) 21:35:52 145.870
HO-68 31 Aug 21:29:48 21:36:36 44° 262° (W) 21:43:27 435.675
O/OREOS (USA 219) 31 Aug 21:37:20 21:40:01 15° 37° (NE) 21:42:44 437.305
PCSat 31 Aug 21:40:16 21:45:08 34° 246° (WSW) 21:49:58 145.827
STRAND 1 31 Aug 21:43:36 21:48:40 65° 290° (WNW) 21:53:43 437.568
SEEDS 31 Aug 21:47:27 21:51:04 29° 265° (W) 21:54:44 437.485
Oscar 11 31 Aug 21:52:06 21:56:24 84° 76° (ENE) 22:00:45 145.826/435.025
AIST 1 31 Aug 21:52:38 21:56:14 25° 272° (W) 21:59:48
AUBIESAT-1 31 Aug 21:59:47 22:02:25 15° 49° (NE) 22:05:00 437.475
AAUSAT CUBESAT 2 31 Aug 22:04:53 22:08:35 32° 264° (W) 22:12:20 437.432
FUNcube-1 31 Aug 22:05:58 22:10:21 77° 256° (WSW) 22:14:39 145.935
AIST 2 31 Aug 22:06:28 22:08:50 15° 248° (WSW) 22:11:13 435.215
M-CUBED/EXP-1 PRIME 31 Aug 22:08:38 22:12:05 21° 52° (NE) 22:15:27 437.505
COMPASS 1 31 Aug 22:18:30 22:21:37 20° 269° (W) 22:24:44 437.405
UWE-3 31 Aug 22:26:51 22:30:54 32° 264° (W) 22:34:53 435.000/436.395/437.385
ZACube-1 31 Aug 22:30:28 22:34:39 42° 262° (W) 22:38:46 437.345
PRISM 31 Aug 22:35:00 22:39:11 63° 102° (ESE) 22:43:19 437.425
HUMSAT D 31 Aug 22:35:27 22:39:28 54° 71° (ENE) 22:43:29 437.325/437.525
CUBEBUG 2 31 Aug 22:40:15 22:43:33 19° 270° (W) 22:46:47 437.445
TIGRISAT 31 Aug 22:45:43 22:46:46 11° 85° (E) 22:47:49 435.000
AISAT 31 Aug 22:47:19 22:49:09 12° 53° (NE) 22:50:59 437.250
Cosmos 2491 31 Aug 22:55:11 22:57:11 11° 327° (NNW) 22:59:13 435.465 / 435.565
ESTCUBE 1 31 Aug 22:56:42 23:00:09 22° 60° (ENE) 23:03:37 437.505/2401.250
DELFI C3 31 Aug 23:03:38 23:07:21 40° 262° (W) 23:11:07 145.870
Cosmos 2499 31 Aug 23:05:11 23:11:54 43° 69° (ENE) 23:18:37 435.465 / 435.565
UNISAT 6 31 Aug 23:14:07 23:17:28 22° 92° (E) 23:20:46 437.425
O/OREOS (USA 219) 31 Aug 23:15:45 23:20:21 67° 59° (ENE) 23:24:57 437.305
GONETS M04 31 Aug 23:17:52 23:26:44 66° 75° (ENE) 23:35:31
SPROUT 31 Aug 23:19:12 23:20:46 12° 54° (NE) 23:22:20 437.525
CUBEBUG 1 31 Aug 23:21:31 23:25:06 25° 62° (ENE) 23:28:43 437.445
CUSAT 1 31 Aug 23:24:18 23:27:14 25° 86° (E) 23:30:50 437.405
STRAND 1 31 Aug 23:24:33 23:26:56 13° 310° (NW) 23:29:20 437.568
RS-15 31 Aug 23:29:42 23:33:29 12° 88° (E) 23:37:19 29.354- 29.394
Oscar 11 31 Aug 23:31:15 23:33:10 13° 274° (W) 23:35:05 145.826/435.025
AUBIESAT-1 31 Aug 23:31:35 23:36:13 77° 67° (ENE) 23:40:45 437.475
VELOX 1 31 Aug 23:31:50 23:35:32 26° 62° (ENE) 23:39:15 145.980
DX 1 31 Aug 23:33:30 23:36:42 20° 59° (ENE) 23:39:56 434.975-435.025
SO-50 31 Aug 23:38:12 23:42:40 38° 121° (ESE) 23:47:06 436.795
M-CUBED/EXP-1 PRIME 31 Aug 23:41:24 23:46:08 76° 251° (WSW) 23:50:46 437.505
ANTELSAT 31 Aug 23:50:24 23:54:33 46° 99° (E) 23:58:39 437.575/2403.000
UKube-1 01 Sep 00:04:06 00:07:50 29° 63° (ENE) 00:11:35 .
50 SAT 01 Sep 00:07:04 00:10:30 45° 70° (ENE) 00:13:58 437.505
PRISM 01 Sep 00:11:12 00:14:05 18° 301° (WNW) 00:16:58 437.425
HUMSAT D 01 Sep 00:12:35 00:15:26 18° 269° (W) 00:18:16 437.325/437.525
TIGRISAT 01 Sep 00:19:53 00:24:12 86° 104° (ESE) 00:28:26 435.000
AISAT 01 Sep 00:20:24 00:24:51 72° 72° (ENE) 00:29:20 437.250
QB50P1 01 Sep 00:25:00 00:28:00 19° 91° (E) 00:31:00 145.935-145.965
ESTCUBE 1 01 Sep 00:32:13 00:36:38 56° 259° (W) 00:41:06 437.505/2401.250
POPSAT HIP 1 01 Sep 00:35:14 00:38:37 23° 93° (E) 00:41:57 437.405
JAS-2 01 Sep 00:46:55 00:52:44 28° 91° (E) 00:58:59 435.910
UNISAT 6 01 Sep 00:50:19 00:54:27 47° 291° (WNW) 00:58:32 437.425
SPROUT 01 Sep 00:51:40 00:55:57 73° 74° (ENE) 01:00:17 437.525
TISAT 1 01 Sep 00:54:17 00:57:36 23° 61° (ENE) 01:00:56 437.305
O/OREOS (USA 219) 01 Sep 00:56:07 00:59:17 18° 259° (W) 01:02:26 437.305
DUCHIFAT 1 01 Sep 00:56:52 01:00:41 32° 96° (E) 01:04:27 145.980
CUBEBUG 1 01 Sep 00:56:53 01:01:09 47° 261° (W) 01:05:29 437.445
Cosmos 2499 01 Sep 00:58:27 01:05:03 44° 271° (W) 01:11:43 435.465 / 435.565
CUSAT 1 01 Sep 01:05:51 01:09:05 30° 296° (WNW) 01:13:11 437.405
DANDE 01 Sep 01:06:23 01:09:10 84° 283° (WNW) 01:12:37 436.750
QB50P2 01 Sep 01:06:27 01:10:34 48° 100° (E) 01:14:38 145.880/145.840
VELOX 1 01 Sep 01:07:32 01:11:48 45° 261° (W) 01:16:08 145.980
AUBIESAT-1 01 Sep 01:08:08 01:11:06 17° 265° (W) 01:14:03 437.475
DX 1 01 Sep 01:08:11 01:12:31 60° 258° (WSW) 01:16:54 434.975-435.025
POLYITAN 1 01 Sep 01:08:56 01:13:03 48° 100° (E) 01:17:07 437.675
SWISSCUBE 01 Sep 01:10:03 01:11:38 12° 50° (NE) 01:13:11 437.505
NANOSAT C BR1 01 Sep 01:12:57 01:17:04 50° 100° (E) 01:21:08 145.865
GONETS M04 01 Sep 01:15:18 01:23:03 36° 278° (W) 01:30:47
SO-50 01 Sep 01:18:26 01:23:07 47° 321° (NW) 01:27:45 436.795
M-CUBED/EXP-1 PRIME 01 Sep 01:19:33 01:21:19 12° 268° (W) 01:23:04 437.505
BEESAT 01 Sep 01:25:35 01:28:02 14° 53° (NE) 01:30:28 436.000
ANTELSAT 01 Sep 01:27:37 01:31:02 23° 298° (WNW) 01:34:25 437.575/2403.000
RS-15 01 Sep 01:31:36 01:42:33 51° 113° (ESE) 01:54:01 29.354- 29.394
BUGSAT 1 01 Sep 01:32:03 01:35:50 33° 96° (E) 01:39:32 437.445
UKube-1 01 Sep 01:39:45 01:43:47 38° 262° (W) 01:47:51 .
50 SAT 01 Sep 01:41:57 01:44:19 17° 269° (W) 01:46:43 437.505
TIGRISAT 01 Sep 01:57:59 02:00:18 14° 304° (NW) 02:02:36 435.000
AISAT 01 Sep 01:59:03 02:01:50 16° 271° (W) 02:04:37 437.250
QB50P1 01 Sep 01:59:59 02:04:08 54° 290° (WNW) 02:08:14 145.935-145.965
POPSAT HIP 1 01 Sep 02:10:35 02:14:37 44° 291° (WNW) 02:18:36 437.405
ITUPSAT 1 01 Sep 02:14:06 02:18:17 31° 63° (ENE) 02:22:28 437.325
Oscar 19 01 Sep 02:16:24 02:20:31 23° 91° (E) 02:24:36 437.125/150
Gurwin Techsat 1B 01 Sep 02:27:17 02:30:12 15° 86° (E) 02:33:07 435.225
TISAT 1 01 Sep 02:28:51 02:32:59 49° 260° (W) 02:37:08 437.305
SPROUT 01 Sep 02:29:58 02:32:25 15° 272° (W) 02:34:53 437.525
JAS-2 01 Sep 02:31:28 02:38:17 76° 289° (WNW) 02:45:51 435.910
DUCHIFAT 1 01 Sep 02:32:38 02:36:20 31° 295° (WNW) 02:40:02 145.980
MOZHAYETS 4 01 Sep 02:35:20 02:35:35 10° 50° (NE) 02:35:50
QB50P2 01 Sep 02:42:48 02:46:07 23° 298° (WNW) 02:49:24 145.880/145.840
SWISSCUBE 01 Sep 02:43:50 02:48:30 60° 70° (ENE) 02:53:12 437.505
POLYITAN 1 01 Sep 02:45:19 02:48:36 22° 298° (WNW) 02:51:51 437.675
NANOSAT C BR1 01 Sep 02:49:17 02:52:31 22° 299° (WNW) 02:55:44 145.865
Cosmos 2491 01 Sep 02:58:57 03:03:03 14° 39° (NE) 03:07:08 435.465 / 435.565
BEESAT 01 Sep 03:00:19 03:05:03 76° 72° (ENE) 03:09:50 436.000
SO-50 01 Sep 03:01:13 03:04:41 19° 344° (NNW) 03:08:06 436.795
BUGSAT 1 01 Sep 03:07:33 03:11:09 29° 295° (WNW) 03:14:42 437.445
KKS-1 01 Sep 03:26:56 03:30:22 22° 60° (ENE) 03:33:48 437.445
ITAMSAT 1 01 Sep 03:41:32 03:45:18 20° 90° (E) 03:49:02 435.822/435.867
RS-15 01 Sep 03:42:57 03:54:44 70° 321° (NW) 04:07:06 29.354- 29.394
PHONESAT 2.4 01 Sep 03:43:38 03:44:30 11° 186° (S) 03:45:20 2401.200-2431.200
STARS 01 Sep 03:49:33 03:52:41 19° 58° (ENE) 03:55:50 437.465
ITUPSAT 1 01 Sep 03:51:33 03:56:01 41° 262° (W) 04:00:33 437.325
Oscar 19 01 Sep 03:55:07 04:00:16 62° 290° (WNW) 04:05:23 437.125/150
Gurwin Techsat 1B 01 Sep 04:05:37 04:10:59 85° 105° (ESE) 04:16:19 435.225
CUBESAT XI-V 01 Sep 04:07:07 04:08:51 12° 52° (NE) 04:10:35 437.345
MOZHAYETS 4 01 Sep 04:07:21 04:11:48 56° 70° (ENE) 04:16:17
JAS-2 01 Sep 04:17:38 04:22:30 22° 308° (NW) 04:27:41 435.910
SWISSCUBE 01 Sep 04:23:09 04:26:42 21° 269° (W) 04:30:16 437.505
AO-7 01 Sep 04:34:13 04:41:28 32° 94° (E) 04:48:39 29.400- 29.500
BEESAT 01 Sep 04:40:25 04:43:25 16° 271° (W) 04:46:25 436.000
SO-50 01 Sep 04:43:46 04:46:51 17° 8° (N) 04:49:54 436.795
Cosmos 2491 01 Sep 04:54:26 05:02:51 45° 67° (ENE) 05:11:14 435.465 / 435.565
KKS-1 01 Sep 05:02:10 05:06:36 57° 259° (WSW) 05:11:03 437.445
AO-85 01 Sep 05:16:52 05:21:41 38° 120° (ESE) 05:26:13 145.980
ITAMSAT 1 01 Sep 05:20:07 05:25:18 71° 289° (WNW) 05:30:28 435.822/435.867
STARS 01 Sep 05:24:13 05:28:37 66° 257° (WSW) 05:33:04 437.465
Oscar 19 01 Sep 05:36:16 05:38:38 13° 311° (NW) 05:41:00 437.125/150
CUBESAT XI-V 01 Sep 05:40:47 05:45:22 66° 72° (ENE) 05:50:01 437.345
MOZHAYETS 4 01 Sep 05:45:54 05:49:19 21° 269° (W) 05:52:45
Gurwin Techsat 1B 01 Sep 05:46:35 05:50:20 20° 305° (NW) 05:54:03 435.225
STRAND 1 01 Sep 05:51:29 05:52:34 11° 47° (NE) 05:53:41 437.568
RS-15 01 Sep 05:58:18 06:09:42 44° 352° (N) 06:21:24 29.354- 29.394
HORYU 2 01 Sep 06:10:22 06:14:06 26° 94° (E) 06:17:48 437.375
YUBILEINY 01 Sep 06:13:11 06:21:15 42° 85° (E) 06:29:19 435.215
SO-50 01 Sep 06:24:25 06:28:41 33° 32° (NNE) 06:32:50 436.795
AO-7 01 Sep 06:26:41 06:34:59 74° 295° (WNW) 06:43:13 29.400- 29.500
NOAA 18 01 Sep 06:42:09 06:44:13 12° 84° (E) 06:46:17 137.9125
NOAA 15 01 Sep 06:42:43 06:46:14 18° 88° (E) 06:49:44 137.62
Cubesat XI-IV 01 Sep 06:48:12 06:51:20 16° 87° (E) 06:54:26 437.490
Cosmos 2491 01 Sep 06:51:27 06:59:56 53° 271° (W) 07:08:24 435.465 / 435.565
BRITE-PL 01 Sep 06:55:11 07:00:34 40° 95° (E) 07:05:46 437.365/2234.400
AO-85 01 Sep 06:57:07 07:02:07 49° 319° (NW) 07:06:48 145.980
CUTE-I 01 Sep 06:57:58 07:01:42 19° 89° (E) 07:05:24 437.470
ITAMSAT 1 01 Sep 07:01:07 07:03:56 15° 309° (NW) 07:06:44 435.822/435.867
LilacSat-2 01 Sep 07:04:16 07:06:43 16° 90° (E) 07:09:10 437.200
Cosmos 2504 01 Sep 07:06:44 07:13:42 33° 84° (E) 07:20:17 435.465 / 435.565
CUBESAT XI-V 01 Sep 07:20:04 07:23:14 18° 271° (W) 07:26:26 437.345
DOVE 4 01 Sep 07:25:22 07:28:32 17° 86° (E) 07:31:35 437.250
STRAND 1 01 Sep 07:25:44 07:30:39 50° 67° (ENE) 07:35:35 437.568
GOMX 1 01 Sep 07:43:23 07:48:37 48° 97° (E) 07:53:34 467.674
ISS 01 Sep 07:44:23 07:45:34 12° 137° (SE) 07:46:45 145.825
HORYU 2 01 Sep 07:46:38 07:50:49 42° 293° (WNW) 07:54:58 437.375
PRISM 01 Sep 07:56:27 07:58:29 13° 55° (NE) 08:00:30 437.425
SO-50 01 Sep 08:04:53 08:09:28 59° 234° (SW) 08:13:54 436.795
CUSAT 1 01 Sep 08:08:33 08:11:09 12° 50° (NE) 08:13:55 437.405
YUBILEINY 01 Sep 08:09:12 08:17:51 57° 289° (WNW) 08:26:32 435.215
RS-15 01 Sep 08:13:25 08:25:24 53° 25° (NNE) 08:37:25 29.354- 29.394
AO-7 01 Sep 08:20:14 08:26:33 25° 318° (NW) 08:32:50 29.400- 29.500
NOAA 18 01 Sep 08:20:25 08:25:55 70° 104° (ESE) 08:31:21 137.9125
NOAA 15 01 Sep 08:21:20 08:26:41 83° 288° (WNW) 08:32:01 137.62
CANX-2 01 Sep 08:23:23 08:25:25 13° 87° (E) 08:27:27 2200.000
Cubesat XI-IV 01 Sep 08:26:49 08:32:11 89° 113° (ESE) 08:37:31 437.490
CUTE 1.7 + AOD 2 01 Sep 08:28:29 08:30:28 13° 87° (E) 08:32:27 437.475
BRITE-PL 01 Sep 08:33:41 08:39:02 41° 295° (WNW) 08:44:14 437.365/2234.400
CUTE-I 01 Sep 08:37:01 08:42:22 77° 288° (WNW) 08:47:40 437.470
LilacSat-2 01 Sep 08:37:40 08:41:20 50° 289° (WNW) 08:45:00 437.200
AO-85 01 Sep 08:40:02 08:43:36 19° 341° (NNW) 08:46:59 145.980
AIST 1 01 Sep 08:50:19 08:53:22 19° 85° (E) 08:56:27
HO-68 01 Sep 08:51:26 08:57:38 30° 93° (E) 09:03:48 435.675
Cosmos 2491 01 Sep 08:51:27 08:54:35 12° 294° (WNW) 08:57:44 435.465 / 435.565
Cosmos 2504 01 Sep 08:58:33 09:06:40 65° 284° (WNW) 09:14:15 435.465 / 435.565
DOVE 4 01 Sep 09:01:51 09:06:55 78° 287° (WNW) 09:11:39 437.250
CINEMA 3 01 Sep 09:04:59 09:09:10 36° 96° (E) 09:13:08 145.822/145.860
STRAND 1 01 Sep 09:05:46 09:10:05 27° 267° (W) 09:14:26 437.568
BEESAT 2 01 Sep 09:12:51 09:14:39 13° 111° (ESE) 09:16:28 435.950
ISS 01 Sep 09:18:15 09:21:25 46° 155° (SSE) 09:24:35 145.825
BEESAT 3 01 Sep 09:18:36 09:21:50 25° 118° (ESE) 09:25:06 437.485
ANTELSAT 01 Sep 09:20:11 09:22:13 13° 55° (NE) 09:24:15 437.575/2403.000
